User: anonymous   Login
Location: Northcutt
(34.7304°N, 84.4305°W)
Time: 20:56:37
(UTC+00:00)
Language:

Vanguard 2 - Orbit

View from above orbital plane
View from above orbital plane
View from above satellite
View from above satellite

Ground track
Ground track

The orbit data is extracted from the following two-line orbital elements,

1 00011U 59001A   22273.41389420  .00000281  00000-0  13119-3 0  9993
2 00011  32.8762 159.6116 1467281 286.5040  57.9701 11.86173197374125
Epoch (UTC): 30 September 2022 09:56:00
Eccentricity: 0.1467281
inclination: 32.8762°
perigee height: 552 km
apogee height: 2935 km
right ascension of ascending node: 159.6116°
argument of perigee: 286.5040°
revolutions per day: 11.86173197
mean anomaly at epoch: 57.9701°
orbit number at epoch: 37412

The dashed part of the orbit path shows where the satellite is in the earth's shadow,  

DLR